Time,TemperatureF,DewpointF,PressureIn,WindDirection,WindDirectionDegrees,WindSpeedMPH,WindSpeedGustMPH,Humidity,HourlyPrecipIn,Conditions,Clouds,dailyrainin,SolarRadiationWatts/m^2,SoftwareType,DateUTC
2013-03-03 00:05:00,30.8,24.1,30.13,WSW,249,3.0,10.0,76,0.00,,,0.00,0,Wunderground v.1.15,2013-03-03 06:05:00,
2013-03-03 00:11:00,30.6,23.9,30.13,WSW,249,3.0,10.0,76,0.00,,,0.00,0,Wunderground v.1.15,2013-03-03 06:11:00,
2013-03-03 00:17:00,30.5,23.8,30.13,WSW,249,3.0,10.0,76,0.00,,,0.00,0,Wunderground v.1.15,2013-03-03 06:17:00,
2013-03-03 00:23:00,30.5,24.1,30.13,WSW,249,3.0,10.0,77,0.00,,,0.00,0,Wunderground v.1.15,2013-03-03 06:23:00,
2013-03-03 00:29:00,29.5,22.6,30.13,WSW,249,3.0,10.0,75,0.00,,,0.00,0,Wunderground v.1.15,2013-03-03 06:29:00,
2013-03-03 00:35:00,28.3,22.3,30.12,WSW,249,2.0,10.0,78,0.00,,,0.00,0,Wunderground v.1.15,2013-03-03 06:35:00,
2013-03-03 00:41:00,27.2,20.9,30.13,WSW,249,2.0,10.0,77,0.00,,,0.00,0,Wunderground v.1.15,2013-03-03 06:41:00,
2013-03-03 00:47:00,26.0,20.7,30.13,WSW,249,1.0,10.0,80,0.00,,,0.00,0,Wunderground v.1.15,2013-03-03 06:47:00,
2013-03-03 00:53:00,25.9,20.9,30.13,WSW,249,0.0,10.0,81,0.00,,,0.00,0,Wunderground v.1.15,2013-03-03 06:53:00,
2013-03-03 00:59:00,26.0,21.3,30.12,WSW,249,1.0,10.0,82,0.00,,,0.00,0,Wunderground v.1.15,2013-03-03 06:59:00,
2013-03-03 01:05:00,27.8,23.6,30.12,WSW,249,3.0,10.0,84,0.00,,,0.00,0,Wunderground v.1.15,2013-03-03 07:05:00,
2013-03-03 01:11:00,28.9,24.1,30.12,WSW,249,4.0,4.0,82,0.00,,,0.00,0,Wunderground v.1.15,2013-03-03 07:11:00,
2013-03-03 01:17:00,29.2,24.1,30.12,WSW,249,4.0,4.0,81,0.00,,,0.00,0,Wunderground v.1.15,2013-03-03 07:17:00,
2013-03-03 01:23:00,29.3,24.2,30.12,WSW,249,4.0,4.0,81,0.00,,,0.00,0,Wunderground v.1.15,2013-03-03 07:23:00,
2013-03-03 01:29:00,29.8,24.4,30.12,WSW,249,4.0,4.0,80,0.00,,,0.00,0,Wunderground v.1.15,2013-03-03 07:29:00,
2013-03-03 01:35:00,30.3,24.6,30.12,WSW,249,3.0,4.0,79,0.00,,,0.00,0,Wunderground v.1.15,2013-03-03 07:35:00,
2013-03-03 01:41:00,30.3,24.3,30.12,WSW,249,4.0,4.0,78,0.00,,,0.00,0,Wunderground v.1.15,2013-03-03 07:41:00,
2013-03-03 01:47:00,30.2,24.2,30.12,WSW,249,4.0,4.0,78,0.00,,,0.00,0,Wunderground v.1.15,2013-03-03 07:47:00,
2013-03-03 01:53:00,29.9,23.9,30.11,WSW,249,4.0,5.0,78,0.00,,,0.00,0,Wunderground v.1.15,2013-03-03 07:53:00,
2013-03-03 01:59:00,29.6,23.6,30.11,WSW,249,4.0,5.0,78,0.00,,,0.00,0,Wunderground v.1.15,2013-03-03 07:59:00,
2013-03-03 02:05:00,29.5,23.8,30.10,WSW,249,4.0,5.0,79,0.00,,,0.00,0,Wunderground v.1.15,2013-03-03 08:05:00,
2013-03-03 02:11:00,29.6,23.9,30.10,WSW,249,4.0,4.0,79,0.00,,,0.00,0,Wunderground v.1.15,2013-03-03 08:11:00,
2013-03-03 02:17:00,29.6,23.9,30.10,WSW,249,4.0,4.0,79,0.00,,,0.00,0,Wunderground v.1.15,2013-03-03 08:17:00,
2013-03-03 02:23:00,29.5,23.8,30.10,WSW,249,4.0,5.0,79,0.00,,,0.00,0,Wunderground v.1.15,2013-03-03 08:23:00,
2013-03-03 02:29:00,29.2,23.5,30.10,WSW,249,4.0,5.0,79,0.00,,,0.00,0,Wunderground v.1.15,2013-03-03 08:29:00,
2013-03-03 02:35:00,29.2,23.8,30.09,WSW,249,5.0,5.0,80,0.00,,,0.00,0,Wunderground v.1.15,2013-03-03 08:35:00,
2013-03-03 02:41:00,29.0,23.3,30.08,WSW,248,5.0,6.0,79,0.00,,,0.00,0,Wunderground v.1.15,2013-03-03 08:41:00,
2013-03-03 02:47:00,29.2,23.8,30.08,WSW,247,5.0,6.0,80,0.00,,,0.00,0,Wunderground v.1.15,2013-03-03 08:47:00,
2013-03-03 02:53:00,29.0,23.3,30.08,WSW,247,5.0,6.0,79,0.00,,,0.00,0,Wunderground v.1.15,2013-03-03 08:53:00,
2013-03-03 02:59:00,28.9,23.2,30.08,WSW,247,5.0,5.0,79,0.00,,,0.00,0,Wunderground v.1.15,2013-03-03 08:59:00,
2013-03-03 03:05:00,28.9,23.5,30.08,WSW,247,4.0,5.0,80,0.00,,,0.00,0,Wunderground v.1.15,2013-03-03 09:05:00,
2013-03-03 03:11:00,29.0,23.6,30.07,WSW,247,4.0,4.0,80,0.00,,,0.00,0,Wunderground v.1.15,2013-03-03 09:11:00,
2013-03-03 03:17:00,29.5,24.1,30.07,WSW,247,4.0,4.0,80,0.00,,,0.00,0,Wunderground v.1.15,2013-03-03 09:17:00,
2013-03-03 03:23:00,29.7,24.0,30.06,WSW,246,5.0,5.0,79,0.00,,,0.00,0,Wunderground v.1.15,2013-03-03 09:23:00,
2013-03-03 03:29:00,29.4,23.7,30.06,WSW,245,5.0,6.0,79,0.00,,,0.00,0,Wunderground v.1.15,2013-03-03 09:29:00,
2013-03-03 03:35:00,29.0,23.3,30.05,WSW,245,5.0,6.0,79,0.00,,,0.00,0,Wunderground v.1.15,2013-03-03 09:35:00,
2013-03-03 03:41:00,29.2,23.5,30.05,WSW,245,5.0,7.0,79,0.00,,,0.00,0,Wunderground v.1.15,2013-03-03 09:41:00,
2013-03-03 03:47:00,29.5,23.8,30.05,WSW,237,6.0,7.0,79,0.00,,,0.00,0,Wunderground v.1.15,2013-03-03 09:47:00,
2013-03-03 03:53:00,29.3,23.3,30.05,WSW,237,6.0,7.0,78,0.00,,,0.00,0,Wunderground v.1.15,2013-03-03 09:53:00,
2013-03-03 03:59:00,29.2,23.2,30.04,SW,233,5.0,7.0,78,0.00,,,0.00,0,Wunderground v.1.15,2013-03-03 09:59:00,
2013-03-03 04:05:00,29.0,23.0,30.03,SW,231,6.0,7.0,78,0.00,,,0.00,0,Wunderground v.1.15,2013-03-03 10:05:00,
2013-03-03 04:11:00,29.2,23.5,30.03,SW,226,6.0,6.0,79,0.00,,,0.00,0,Wunderground v.1.15,2013-03-03 10:11:00,
2013-03-03 04:17:00,29.0,23.0,30.02,SW,225,6.0,6.0,78,0.00,,,0.00,0,Wunderground v.1.15,2013-03-03 10:17:00,
2013-03-03 04:23:00,28.9,23.2,30.03,SW,224,6.0,7.0,79,0.00,,,0.00,0,Wunderground v.1.15,2013-03-03 10:23:00,
2013-03-03 04:29:00,28.8,22.8,30.03,SW,223,6.0,6.0,78,0.00,,,0.00,0,Wunderground v.1.15,2013-03-03 10:29:00,
2013-03-03 04:35:00,28.7,23.0,30.03,SW,223,5.0,6.0,79,0.00,,,0.00,0,Wunderground v.1.15,2013-03-03 10:35:00,
2013-03-03 04:41:00,29.2,23.5,30.02,SW,223,5.0,6.0,79,0.00,,,0.00,0,Wunderground v.1.15,2013-03-03 10:41:00,
2013-03-03 04:47:00,28.9,22.9,30.02,SW,223,5.0,5.0,78,0.00,,,0.00,0,Wunderground v.1.15,2013-03-03 10:47:00,
2013-03-03 04:53:00,29.1,23.4,30.01,SW,222,5.0,7.0,79,0.00,,,0.00,0,Wunderground v.1.15,2013-03-03 10:53:00,
2013-03-03 04:59:00,28.7,22.7,30.01,SW,222,5.0,6.0,78,0.00,,,0.00,0,Wunderground v.1.15,2013-03-03 10:59:00,
2013-03-03 05:05:00,28.3,22.3,30.02,SW,222,5.0,6.0,78,0.00,,,0.00,0,Wunderground v.1.15,2013-03-03 11:05:00,
2013-03-03 05:11:00,28.2,22.5,30.01,SW,222,4.0,5.0,79,0.00,,,0.00,0,Wunderground v.1.15,2013-03-03 11:11:00,
2013-03-03 05:17:00,28.2,22.5,30.01,SW,222,4.0,4.0,79,0.00,,,0.00,0,Wunderground v.1.15,2013-03-03 11:17:00,
2013-03-03 05:23:00,28.1,22.7,30.01,SW,222,4.0,4.0,80,0.00,,,0.00,0,Wunderground v.1.15,2013-03-03 11:23:00,
2013-03-03 05:29:00,28.1,22.7,30.01,SW,222,4.0,5.0,80,0.00,,,0.00,0,Wunderground v.1.15,2013-03-03 11:29:00,
2013-03-03 05:35:00,28.3,22.9,30.01,SW,222,4.0,5.0,80,0.00,,,0.00,0,Wunderground v.1.15,2013-03-03 11:35:00,
2013-03-03 05:41:00,28.4,22.7,30.01,SW,222,4.0,5.0,79,0.00,,,0.00,0,Wunderground v.1.15,2013-03-03 11:41:00,
2013-03-03 05:47:00,27.9,22.5,30.00,SW,222,5.0,6.0,80,0.00,,,0.00,0,Wunderground v.1.15,2013-03-03 11:47:00,
2013-03-03 05:53:00,28.1,22.7,30.00,SW,222,5.0,6.0,80,0.00,,,0.00,0,Wunderground v.1.15,2013-03-03 11:53:00,
2013-03-03 06:03:00,28.7,23.3,30.00,SW,221,6.0,7.0,80,0.00,,,0.00,0,Wunderground v.1.15,2013-03-03 12:03:00,
2013-03-03 06:09:00,28.3,22.6,30.00,SW,220,6.0,6.0,79,0.00,,,0.00,0,Wunderground v.1.15,2013-03-03 12:09:00,
2013-03-03 06:15:00,28.1,22.7,29.99,SW,220,5.0,5.0,80,0.00,,,0.00,0,Wunderground v.1.15,2013-03-03 12:15:00,
2013-03-03 06:21:00,28.0,22.6,29.99,SW,218,5.0,6.0,80,0.00,,,0.00,0,Wunderground v.1.15,2013-03-03 12:21:00,
2013-03-03 06:27:00,27.8,22.4,29.99,SW,218,5.0,5.0,80,0.00,,,0.00,0,Wunderground v.1.15,2013-03-03 12:27:00,
2013-03-03 06:33:00,28.2,23.1,29.99,SW,218,5.0,6.0,81,0.00,,,0.00,0,Wunderground v.1.15,2013-03-03 12:33:00,
2013-03-03 06:39:00,28.0,22.6,29.99,SW,218,5.0,6.0,80,0.00,,,0.00,0,Wunderground v.1.15,2013-03-03 12:39:00,
2013-03-03 06:45:00,28.2,22.8,29.99,SW,218,5.0,5.0,80,0.00,,,0.00,0,Wunderground v.1.15,2013-03-03 12:45:00,
2013-03-03 06:51:00,28.6,23.5,29.98,SW,218,5.0,5.0,81,0.00,,,0.00,0,Wunderground v.1.15,2013-03-03 12:51:00,
2013-03-03 06:57:00,28.8,23.1,29.98,SW,218,6.0,6.0,79,0.00,,,0.00,0,Wunderground v.1.15,2013-03-03 12:57:00,
2013-03-03 07:03:00,28.3,22.6,29.98,SW,216,6.0,6.0,79,0.00,,,0.00,7,Wunderground v.1.15,2013-03-03 13:03:00,
2013-03-03 07:09:00,28.3,22.9,29.98,SW,216,5.0,5.0,80,0.00,,,0.00,12,Wunderground v.1.15,2013-03-03 13:09:00,
2013-03-03 07:15:00,28.5,23.4,29.98,SW,216,4.0,5.0,81,0.00,,,0.00,16,Wunderground v.1.15,2013-03-03 13:15:00,
2013-03-03 07:21:00,28.8,23.7,29.98,SSW,210,5.0,7.0,81,0.00,,,0.00,23,Wunderground v.1.15,2013-03-03 13:21:00,
2013-03-03 07:27:00,29.3,23.9,29.98,SSW,208,6.0,7.0,80,0.00,,,0.00,35,Wunderground v.1.15,2013-03-03 13:27:00,
2013-03-03 07:33:00,30.1,24.7,29.98,SSW,193,7.0,7.0,80,0.00,,,0.00,60,Wunderground v.1.15,2013-03-03 13:33:00,
2013-03-03 07:39:00,30.7,25.0,29.97,South,184,7.0,8.0,79,0.00,,,0.00,69,Wunderground v.1.15,2013-03-03 13:39:00,
2013-03-03 07:45:00,31.1,25.3,29.97,South,180,8.0,10.0,79,0.00,,,0.00,74,Wunderground v.1.15,2013-03-03 13:45:00,
2013-03-03 07:51:00,31.6,25.5,29.97,South,173,8.0,8.0,78,0.00,,,0.00,116,Wunderground v.1.15,2013-03-03 13:51:00,
2013-03-03 07:57:00,31.8,25.7,29.97,South,173,8.0,8.0,78,0.00,,,0.00,137,Wunderground v.1.15,2013-03-03 13:57:00,
2013-03-03 08:03:00,31.9,25.8,29.98,South,173,7.0,8.0,78,0.00,,,0.00,160,Wunderground v.1.15,2013-03-03 14:03:00,
2013-03-03 08:09:00,32.5,26.4,29.98,South,172,7.0,9.0,78,0.00,,,0.00,181,Wunderground v.1.15,2013-03-03 14:09:00,
2013-03-03 08:15:00,33.3,26.9,29.98,South,171,8.0,9.0,77,0.00,,,0.00,195,Wunderground v.1.15,2013-03-03 14:15:00,
2013-03-03 08:21:00,33.7,26.9,29.97,South,171,7.0,7.0,76,0.00,,,0.00,218,Wunderground v.1.15,2013-03-03 14:21:00,
2013-03-03 08:27:00,33.7,27.3,29.97,South,170,7.0,7.0,77,0.00,,,0.00,243,Wunderground v.1.15,2013-03-03 14:27:00,
2013-03-03 08:33:00,34.0,27.5,29.97,SSE,168,8.0,9.0,77,0.00,,,0.00,260,Wunderground v.1.15,2013-03-03 14:33:00,
2013-03-03 08:39:00,34.4,27.6,29.97,SSE,166,8.0,9.0,76,0.00,,,0.00,283,Wunderground v.1.15,2013-03-03 14:39:00,
2013-03-03 08:45:00,34.7,27.9,29.97,SSE,166,8.0,9.0,76,0.00,,,0.00,292,Wunderground v.1.15,2013-03-03 14:45:00,
2013-03-03 08:51:00,35.0,28.2,29.96,SSE,165,8.0,10.0,76,0.00,,,0.00,323,Wunderground v.1.15,2013-03-03 14:51:00,
2013-03-03 08:57:00,35.4,28.6,29.96,SSE,164,9.0,9.0,76,0.00,,,0.00,327,Wunderground v.1.15,2013-03-03 14:57:00,
2013-03-03 09:03:00,35.8,29.0,29.95,SSE,164,9.0,10.0,76,0.00,,,0.00,334,Wunderground v.1.15,2013-03-03 15:03:00,
2013-03-03 09:09:00,36.4,29.2,29.95,SSE,163,9.0,9.0,75,0.00,,,0.00,392,Wunderground v.1.15,2013-03-03 15:09:00,
2013-03-03 09:17:00,37.5,29.6,29.95,SSE,162,8.0,8.0,73,0.00,,,0.00,469,Wunderground v.1.15,2013-03-03 15:17:00,
2013-03-03 09:23:00,37.7,29.5,29.94,SSE,160,8.0,9.0,72,0.00,,,0.00,343,Wunderground v.1.15,2013-03-03 15:23:00,
2013-03-03 09:29:00,37.5,29.6,29.95,SSE,160,8.0,8.0,73,0.00,,,0.00,445,Wunderground v.1.15,2013-03-03 15:29:00,
2013-03-03 09:35:00,37.7,30.2,29.94,SSE,161,7.0,9.0,74,0.00,,,0.00,450,Wunderground v.1.15,2013-03-03 15:35:00,
2013-03-03 09:41:00,38.1,30.5,29.94,SSE,162,7.0,9.0,74,0.00,,,0.00,487,Wunderground v.1.15,2013-03-03 15:41:00,
2013-03-03 09:47:00,38.5,30.9,29.94,SSE,162,6.0,7.0,74,0.00,,,0.00,475,Wunderground v.1.15,2013-03-03 15:47:00,
2013-03-03 09:53:00,39.3,31.4,29.94,SSE,166,6.0,8.0,73,0.00,,,0.00,534,Wunderground v.1.15,2013-03-03 15:53:00,
2013-03-03 09:59:00,39.8,31.5,29.94,South,170,6.0,6.0,72,0.00,,,0.00,497,Wunderground v.1.15,2013-03-03 15:59:00,
2013-03-03 10:05:00,40.2,31.5,29.94,South,169,6.0,7.0,71,0.00,,,0.00,550,Wunderground v.1.15,2013-03-03 16:05:00,
2013-03-03 10:11:00,40.8,31.4,29.93,South,187,8.0,12.0,69,0.00,,,0.00,452,Wunderground v.1.15,2013-03-03 16:11:00,
2013-03-03 10:17:00,40.7,31.3,29.92,South,182,9.0,10.0,69,0.00,,,0.00,504,Wunderground v.1.15,2013-03-03 16:17:00,
2013-03-03 10:23:00,40.7,31.7,29.91,South,177,8.0,10.0,70,0.00,,,0.00,737,Wunderground v.1.15,2013-03-03 16:23:00,
2013-03-03 10:29:00,40.7,31.7,29.91,South,179,8.0,13.0,70,0.00,,,0.00,411,Wunderground v.1.15,2013-03-03 16:29:00,
2013-03-03 10:35:00,40.7,31.7,29.90,South,172,8.0,13.0,70,0.00,,,0.00,599,Wunderground v.1.15,2013-03-03 16:35:00,
2013-03-03 10:41:00,40.7,32.0,29.90,South,175,7.0,8.0,71,0.00,,,0.00,466,Wunderground v.1.15,2013-03-03 16:41:00,
2013-03-03 10:47:00,40.9,32.2,29.91,South,182,6.0,6.0,71,0.00,,,0.00,446,Wunderground v.1.15,2013-03-03 16:47:00,
2013-03-03 10:53:00,41.9,32.8,29.91,South,187,7.0,8.0,70,0.00,,,0.00,527,Wunderground v.1.15,2013-03-03 16:53:00,
2013-03-03 10:59:00,42.4,32.6,29.91,South,181,7.0,10.0,68,0.00,,,0.00,585,Wunderground v.1.15,2013-03-03 16:59:00,
2013-03-03 11:05:00,42.3,32.8,29.91,South,185,7.0,10.0,69,0.00,,,0.00,738,Wunderground v.1.15,2013-03-03 17:05:00,
2013-03-03 11:11:00,43.3,33.1,29.91,South,185,7.0,10.0,67,0.00,,,0.00,740,Wunderground v.1.15,2013-03-03 17:11:00,
2013-03-03 11:17:00,43.3,33.1,29.91,South,181,8.0,8.0,67,0.00,,,0.00,531,Wunderground v.1.15,2013-03-03 17:17:00,
2013-03-03 11:23:00,43.1,33.6,29.91,South,181,7.0,8.0,69,0.00,,,0.00,765,Wunderground v.1.15,2013-03-03 17:23:00,
2013-03-03 11:29:00,43.4,33.5,29.91,South,181,7.0,7.0,68,0.00,,,0.00,559,Wunderground v.1.15,2013-03-03 17:29:00,
2013-03-03 11:35:00,43.6,34.1,29.90,South,177,7.0,9.0,69,0.00,,,0.00,708,Wunderground v.1.15,2013-03-03 17:35:00,
2013-03-03 11:41:00,43.3,33.8,29.89,South,175,7.0,7.0,69,0.00,,,0.00,645,Wunderground v.1.15,2013-03-03 17:41:00,
2013-03-03 11:47:00,43.9,34.0,29.89,South,179,6.0,8.0,68,0.00,,,0.00,731,Wunderground v.1.15,2013-03-03 17:47:00,
2013-03-03 11:53:00,44.3,34.4,29.89,South,177,7.0,8.0,68,0.00,,,0.00,719,Wunderground v.1.15,2013-03-03 17:53:00,
2013-03-03 11:59:00,43.9,34.0,29.88,SSE,168,7.0,10.0,68,0.00,,,0.00,619,Wunderground v.1.15,2013-03-03 17:59:00,
2013-03-03 12:05:00,44.4,34.9,29.88,SSE,168,7.0,10.0,69,0.00,,,0.00,759,Wunderground v.1.15,2013-03-03 18:05:00,
2013-03-03 12:11:00,44.8,34.9,29.88,SSE,168,6.0,7.0,68,0.00,,,0.00,747,Wunderground v.1.15,2013-03-03 18:11:00,
2013-03-03 12:17:00,45.2,35.3,29.87,SSE,164,7.0,8.0,68,0.00,,,0.00,744,Wunderground v.1.15,2013-03-03 18:17:00,
2013-03-03 12:23:00,45.3,35.0,29.87,SSE,161,7.0,8.0,67,0.00,,,0.00,772,Wunderground v.1.15,2013-03-03 18:23:00,
2013-03-03 12:29:00,46.3,35.6,29.86,SSE,158,8.0,10.0,66,0.00,,,0.00,775,Wunderground v.1.15,2013-03-03 18:29:00,
2013-03-03 12:35:00,46.9,35.4,29.86,SSE,158,8.0,10.0,64,0.00,,,0.00,796,Wunderground v.1.15,2013-03-03 18:35:00,
2013-03-03 12:41:00,47.0,35.4,29.86,SSE,164,9.0,9.0,64,0.00,,,0.00,670,Wunderground v.1.15,2013-03-03 18:41:00,
2013-03-03 12:47:00,47.0,35.8,29.85,SSE,157,9.0,11.0,65,0.00,,,0.00,640,Wunderground v.1.15,2013-03-03 18:47:00,
2013-03-03 12:53:00,47.4,35.8,29.84,SSE,154,9.0,11.0,64,0.00,,,0.00,585,Wunderground v.1.15,2013-03-03 18:53:00,
2013-03-03 12:59:00,48.2,36.2,29.84,SSE,151,8.0,8.0,63,0.00,,,0.00,805,Wunderground v.1.15,2013-03-03 18:59:00,
2013-03-03 13:05:00,48.6,36.6,29.83,SSE,152,6.0,8.0,63,0.00,,,0.00,803,Wunderground v.1.15,2013-03-03 19:05:00,
2013-03-03 13:11:00,49.5,37.0,29.83,SE,146,7.0,7.0,62,0.00,,,0.00,696,Wunderground v.1.15,2013-03-03 19:11:00,
2013-03-03 13:17:00,48.9,36.4,29.83,SE,143,6.0,6.0,62,0.00,,,0.00,717,Wunderground v.1.15,2013-03-03 19:17:00,
2013-03-03 13:23:00,48.5,36.5,29.82,SE,143,5.0,6.0,63,0.00,,,0.00,541,Wunderground v.1.15,2013-03-03 19:23:00,
2013-03-03 13:29:00,48.7,36.7,29.82,SE,142,5.0,6.0,63,0.00,,,0.00,735,Wunderground v.1.15,2013-03-03 19:29:00,
2013-03-03 13:35:00,49.1,37.0,29.81,SE,143,6.0,8.0,63,0.00,,,0.00,592,Wunderground v.1.15,2013-03-03 19:35:00,
2013-03-03 13:41:00,50.1,37.6,29.80,SSE,147,7.0,10.0,62,0.00,,,0.00,401,Wunderground v.1.15,2013-03-03 19:41:00,
2013-03-03 13:47:00,50.0,37.5,29.80,SSE,155,9.0,9.0,62,0.00,,,0.00,408,Wunderground v.1.15,2013-03-03 19:47:00,
2013-03-03 13:53:00,49.7,37.6,29.80,SSE,154,10.0,10.0,63,0.00,,,0.00,418,Wunderground v.1.15,2013-03-03 19:53:00,
2013-03-03 13:59:00,50.5,38.0,29.79,SSE,154,9.0,11.0,62,0.00,,,0.00,534,Wunderground v.1.15,2013-03-03 19:59:00,
2013-03-03 14:05:00,51.2,38.2,29.79,SSE,154,9.0,11.0,61,0.00,,,0.00,517,Wunderground v.1.15,2013-03-03 20:05:00,
2013-03-03 14:11:00,50.4,37.9,29.79,SSE,155,8.0,8.0,62,0.00,,,0.00,450,Wunderground v.1.15,2013-03-03 20:11:00,
2013-03-03 14:17:00,50.6,38.5,29.79,SSE,155,7.0,7.0,63,0.00,,,0.00,411,Wunderground v.1.15,2013-03-03 20:17:00,
2013-03-03 14:23:00,51.8,38.8,29.78,SSE,154,7.0,7.0,61,0.00,,,0.00,506,Wunderground v.1.15,2013-03-03 20:23:00,
2013-03-03 14:29:00,51.6,38.2,29.78,SSE,152,6.0,7.0,60,0.00,,,0.00,315,Wunderground v.1.15,2013-03-03 20:29:00,
2013-03-03 14:35:00,51.5,38.5,29.77,SSE,152,7.0,10.0,61,0.00,,,0.00,325,Wunderground v.1.15,2013-03-03 20:35:00,
2013-03-03 14:41:00,51.8,39.2,29.76,SSE,153,7.0,8.0,62,0.00,,,0.00,345,Wunderground v.1.15,2013-03-03 20:41:00,
2013-03-03 14:47:00,52.5,39.4,29.76,SSE,152,7.0,8.0,61,0.00,,,0.00,401,Wunderground v.1.15,2013-03-03 20:47:00,
2013-03-03 14:53:00,53.1,39.1,29.76,SSE,153,7.0,8.0,59,0.00,,,0.00,294,Wunderground v.1.15,2013-03-03 20:53:00,
2013-03-03 14:59:00,52.6,39.1,29.75,SSE,152,7.0,8.0,60,0.00,,,0.00,258,Wunderground v.1.15,2013-03-03 20:59:00,
2013-03-03 15:05:00,52.0,39.0,29.75,SSE,148,7.0,8.0,61,0.00,,,0.00,327,Wunderground v.1.15,2013-03-03 21:05:00,
2013-03-03 15:11:00,52.4,38.9,29.75,SSE,150,7.0,9.0,60,0.00,,,0.00,355,Wunderground v.1.15,2013-03-03 21:11:00,
2013-03-03 15:19:00,53.2,39.2,29.75,SSE,150,8.0,8.0,59,0.00,,,0.00,350,Wunderground v.1.15,2013-03-03 21:19:00,
2013-03-03 15:25:00,53.4,39.0,29.74,SSE,149,7.0,7.0,58,0.00,,,0.00,431,Wunderground v.1.15,2013-03-03 21:25:00,
2013-03-03 15:31:00,53.1,38.7,29.74,SE,145,7.0,8.0,58,0.00,,,0.00,281,Wunderground v.1.15,2013-03-03 21:31:00,
2013-03-03 15:37:00,52.4,38.0,29.73,SE,140,7.0,7.0,58,0.00,,,0.00,436,Wunderground v.1.15,2013-03-03 21:37:00,
2013-03-03 15:43:00,52.3,38.0,29.73,SE,141,7.0,9.0,58,0.00,,,0.00,192,Wunderground v.1.15,2013-03-03 21:43:00,
2013-03-03 15:49:00,52.0,37.7,29.73,SE,141,7.0,7.0,58,0.00,,,0.00,172,Wunderground v.1.15,2013-03-03 21:49:00,
2013-03-03 15:55:00,51.6,37.7,29.73,SE,141,7.0,9.0,59,0.00,,,0.00,183,Wunderground v.1.15,2013-03-03 21:55:00,
2013-03-03 16:01:00,51.5,37.6,29.72,SE,140,7.0,8.0,59,0.00,,,0.00,185,Wunderground v.1.15,2013-03-03 22:01:00,
2013-03-03 16:07:00,51.1,37.7,29.72,SE,138,7.0,7.0,60,0.00,,,0.00,190,Wunderground v.1.15,2013-03-03 22:07:00,
2013-03-03 16:13:00,51.6,37.7,29.72,SE,139,7.0,8.0,59,0.00,,,0.00,232,Wunderground v.1.15,2013-03-03 22:13:00,
2013-03-03 16:19:00,51.7,37.4,29.71,SE,141,7.0,8.0,58,0.00,,,0.00,172,Wunderground v.1.15,2013-03-03 22:19:00,
2013-03-03 16:25:00,51.3,37.4,29.71,SE,141,8.0,9.0,59,0.00,,,0.00,186,Wunderground v.1.15,2013-03-03 22:25:00,
2013-03-03 16:31:00,52.2,38.3,29.72,SSE,147,8.0,9.0,59,0.00,,,0.00,181,Wunderground v.1.15,2013-03-03 22:31:00,
2013-03-03 16:37:00,52.2,37.9,29.72,SSE,150,8.0,8.0,58,0.00,,,0.00,155,Wunderground v.1.15,2013-03-03 22:37:00,
2013-03-03 16:43:00,51.8,38.3,29.71,SSE,150,8.0,9.0,60,0.00,,,0.00,123,Wunderground v.1.15,2013-03-03 22:43:00,
2013-03-03 16:49:00,52.4,38.5,29.71,SSE,150,8.0,9.0,59,0.00,,,0.00,100,Wunderground v.1.15,2013-03-03 22:49:00,
2013-03-03 16:55:00,51.8,37.9,29.71,SSE,150,9.0,10.0,59,0.00,,,0.00,107,Wunderground v.1.15,2013-03-03 22:55:00,
2013-03-03 17:01:00,51.7,37.8,29.71,SSE,150,9.0,9.0,59,0.00,,,0.00,121,Wunderground v.1.15,2013-03-03 23:01:00,
2013-03-03 17:07:00,52.4,38.0,29.71,SSE,151,8.0,10.0,58,0.00,,,0.00,116,Wunderground v.1.15,2013-03-03 23:07:00,
2013-03-03 17:13:00,52.3,38.0,29.70,SSE,150,8.0,10.0,58,0.00,,,0.00,98,Wunderground v.1.15,2013-03-03 23:13:00,
2013-03-03 17:19:00,51.6,37.3,29.70,SSE,148,7.0,7.0,58,0.00,,,0.00,79,Wunderground v.1.15,2013-03-03 23:19:00,
2013-03-03 17:25:00,50.3,36.5,29.70,SSE,147,7.0,8.0,59,0.00,,,0.00,62,Wunderground v.1.15,2013-03-03 23:25:00,
2013-03-03 17:31:00,48.4,36.4,29.70,SE,138,7.0,9.0,63,0.00,,,0.00,44,Wunderground v.1.15,2013-03-03 23:31:00,
2013-03-03 17:37:00,48.3,36.7,29.71,SE,139,6.0,6.0,64,0.00,,,0.00,49,Wunderground v.1.15,2013-03-03 23:37:00,
2013-03-03 17:43:00,49.0,37.3,29.70,SE,139,5.0,6.0,64,0.00,,,0.00,47,Wunderground v.1.15,2013-03-03 23:43:00,
2013-03-03 17:49:00,49.8,36.5,29.70,SE,139,6.0,9.0,60,0.00,,,0.00,49,Wunderground v.1.15,2013-03-03 23:49:00,
2013-03-03 17:55:00,50.7,36.9,29.69,SE,142,8.0,10.0,59,0.00,,,0.00,32,Wunderground v.1.15,2013-03-03 23:55:00,
2013-03-03 18:01:00,51.4,36.7,29.69,SE,141,8.0,8.0,57,0.00,,,0.00,18,Wunderground v.1.15,2013-03-04 00:01:00,
2013-03-03 18:07:00,51.0,36.7,29.69,SE,141,7.0,7.0,58,0.00,,,0.00,11,Wunderground v.1.15,2013-03-04 00:07:00,
2013-03-03 18:13:00,49.6,35.8,29.69,SE,142,7.0,8.0,59,0.00,,,0.00,7,Wunderground v.1.15,2013-03-04 00:13:00,
2013-03-03 18:19:00,48.9,36.0,29.68,SE,142,7.0,7.0,61,0.00,,,0.00,5,Wunderground v.1.15,2013-03-04 00:19:00,
2013-03-03 18:25:00,48.4,36.0,29.68,SE,142,7.0,9.0,62,0.00,,,0.00,0,Wunderground v.1.15,2013-03-04 00:25:00,
2013-03-03 18:31:00,48.5,36.1,29.68,SE,142,8.0,9.0,62,0.00,,,0.00,0,Wunderground v.1.15,2013-03-04 00:31:00,
2013-03-03 18:37:00,48.7,36.3,29.69,SE,142,6.0,6.0,62,0.00,,,0.00,0,Wunderground v.1.15,2013-03-04 00:37:00,
2013-03-03 18:43:00,48.7,36.3,29.69,SE,142,5.0,6.0,62,0.00,,,0.00,0,Wunderground v.1.15,2013-03-04 00:43:00,
2013-03-03 18:49:00,48.8,35.9,29.69,SE,139,5.0,8.0,61,0.00,,,0.00,0,Wunderground v.1.15,2013-03-04 00:49:00,
2013-03-03 18:55:00,48.4,35.6,29.69,SE,137,7.0,8.0,61,0.00,,,0.00,0,Wunderground v.1.15,2013-03-04 00:55:00,
2013-03-03 19:01:00,48.1,35.3,29.69,SE,130,7.0,10.0,61,0.00,,,0.00,0,Wunderground v.1.15,2013-03-04 01:01:00,
2013-03-03 19:07:00,48.0,35.6,29.69,SE,133,8.0,10.0,62,0.00,,,0.00,0,Wunderground v.1.15,2013-03-04 01:07:00,
2013-03-03 19:13:00,48.3,35.5,29.69,SE,135,8.0,10.0,61,0.00,,,0.00,0,Wunderground v.1.15,2013-03-04 01:13:00,
2013-03-03 19:19:00,48.5,35.2,29.68,SE,135,9.0,12.0,60,0.00,,,0.00,0,Wunderground v.1.15,2013-03-04 01:19:00,
2013-03-03 19:25:00,48.9,35.2,29.68,SE,139,9.0,12.0,59,0.00,,,0.00,0,Wunderground v.1.15,2013-03-04 01:25:00,
2013-03-03 19:31:00,48.9,34.8,29.68,SE,145,9.0,9.0,58,0.00,,,0.00,0,Wunderground v.1.15,2013-03-04 01:31:00,
2013-03-03 19:37:00,48.9,34.8,29.68,SE,141,9.0,9.0,58,0.00,,,0.00,0,Wunderground v.1.15,2013-03-04 01:37:00,
2013-03-03 19:43:00,48.6,34.9,29.68,SE,137,9.0,9.0,59,0.00,,,0.00,0,Wunderground v.1.15,2013-03-04 01:43:00,
2013-03-03 19:49:00,48.1,34.4,29.68,SE,138,8.0,8.0,59,0.00,,,0.00,0,Wunderground v.1.15,2013-03-04 01:49:00,
2013-03-03 19:55:00,47.9,34.7,29.68,SE,138,8.0,10.0,60,0.00,,,0.00,0,Wunderground v.1.15,2013-03-04 01:55:00,
2013-03-03 20:01:00,47.8,34.6,29.68,SE,135,8.0,8.0,60,0.00,,,0.00,0,Wunderground v.1.15,2013-03-04 02:01:00,
2013-03-03 20:07:00,47.8,34.6,29.68,SE,137,8.0,8.0,60,0.00,,,0.00,0,Wunderground v.1.15,2013-03-04 02:07:00,
2013-03-03 20:13:00,47.5,34.3,29.68,SE,139,8.0,8.0,60,0.00,,,0.00,0,Wunderground v.1.15,2013-03-04 02:13:00,
2013-03-03 20:19:00,47.5,34.7,29.68,SE,138,8.0,10.0,61,0.00,,,0.00,0,Wunderground v.1.15,2013-03-04 02:19:00,
2013-03-03 20:25:00,47.3,34.5,29.68,SE,137,8.0,10.0,61,0.00,,,0.00,0,Wunderground v.1.15,2013-03-04 02:25:00,
2013-03-03 20:31:00,46.9,34.6,29.67,SE,137,8.0,9.0,62,0.00,,,0.00,0,Wunderground v.1.15,2013-03-04 02:31:00,
2013-03-03 20:37:00,46.7,34.4,29.67,SE,137,8.0,8.0,62,0.00,,,0.00,0,Wunderground v.1.15,2013-03-04 02:37:00,
2013-03-03 20:43:00,46.8,34.5,29.67,SE,137,8.0,8.0,62,0.00,,,0.00,0,Wunderground v.1.15,2013-03-04 02:43:00,
2013-03-03 20:49:00,46.7,34.8,29.67,SE,141,8.0,10.0,63,0.00,,,0.00,0,Wunderground v.1.15,2013-03-04 02:49:00,
2013-03-03 20:55:00,46.5,34.6,29.67,SE,135,9.0,10.0,63,0.00,,,0.00,0,Wunderground v.1.15,2013-03-04 02:55:00,
2013-03-03 21:01:00,46.3,34.4,29.67,SE,135,9.0,10.0,63,0.00,,,0.00,0,Wunderground v.1.15,2013-03-04 03:01:00,
2013-03-03 21:07:00,46.4,34.5,29.67,SE,136,8.0,10.0,63,0.00,,,0.00,0,Wunderground v.1.15,2013-03-04 03:07:00,
2013-03-03 21:13:00,46.4,34.5,29.67,SE,135,8.0,10.0,63,0.00,,,0.00,0,Wunderground v.1.15,2013-03-04 03:13:00,
2013-03-03 21:21:00,46.2,34.7,29.67,SE,135,8.0,8.0,64,0.00,,,0.00,0,Wunderground v.1.15,2013-03-04 03:21:00,
2013-03-03 21:27:00,45.9,34.4,29.66,SE,135,8.0,9.0,64,0.00,,,0.00,0,Wunderground v.1.15,2013-03-04 03:27:00,
2013-03-03 21:33:00,45.9,34.4,29.66,SE,135,8.0,9.0,64,0.00,,,0.00,0,Wunderground v.1.15,2013-03-04 03:33:00,
2013-03-03 21:39:00,46.0,34.5,29.66,SE,131,9.0,11.0,64,0.00,,,0.00,0,Wunderground v.1.15,2013-03-04 03:39:00,
2013-03-03 21:45:00,46.3,34.4,29.66,SE,135,9.0,11.0,63,0.00,,,0.00,0,Wunderground v.1.15,2013-03-04 03:45:00,
2013-03-03 21:51:00,46.5,34.6,29.66,SE,141,9.0,9.0,63,0.00,,,0.00,0,Wunderground v.1.15,2013-03-04 03:51:00,
2013-03-03 21:57:00,46.3,34.4,29.66,SE,136,8.0,8.0,63,0.00,,,0.00,0,Wunderground v.1.15,2013-03-04 03:57:00,
2013-03-03 22:03:00,46.4,34.5,29.66,SE,139,8.0,10.0,63,0.00,,,0.00,0,Wunderground v.1.15,2013-03-04 04:03:00,
2013-03-03 22:09:00,46.5,34.6,29.66,SE,138,8.0,11.0,63,0.00,,,0.00,0,Wunderground v.1.15,2013-03-04 04:09:00,
2013-03-03 22:15:00,46.2,34.3,29.66,SE,139,9.0,11.0,63,0.00,,,0.00,0,Wunderground v.1.15,2013-03-04 04:15:00,
2013-03-03 22:21:00,46.1,34.2,29.65,SE,137,8.0,10.0,63,0.00,,,0.00,0,Wunderground v.1.15,2013-03-04 04:21:00,
2013-03-03 22:27:00,46.0,34.1,29.65,SE,139,9.0,9.0,63,0.00,,,0.00,0,Wunderground v.1.15,2013-03-04 04:27:00,
2013-03-03 22:33:00,46.0,34.1,29.65,SE,137,8.0,10.0,63,0.00,,,0.00,0,Wunderground v.1.15,2013-03-04 04:33:00,
2013-03-03 22:39:00,45.8,33.9,29.65,SE,136,9.0,11.0,63,0.00,,,0.00,0,Wunderground v.1.15,2013-03-04 04:39:00,
2013-03-03 22:45:00,45.7,33.8,29.64,SE,134,9.0,11.0,63,0.00,,,0.00,0,Wunderground v.1.15,2013-03-04 04:45:00,
2013-03-03 22:51:00,45.6,34.1,29.64,SE,138,8.0,9.0,64,0.00,,,0.00,0,Wunderground v.1.15,2013-03-04 04:51:00,
2013-03-03 22:57:00,45.8,33.9,29.64,SE,135,8.0,8.0,63,0.00,,,0.00,0,Wunderground v.1.15,2013-03-04 04:57:00,
2013-03-03 23:01:00,45.8,33.9,29.64,SE,137,8.0,9.0,63,0.00,,,0.00,0,Wunderground v.1.15,2013-03-04 05:01:00,
2013-03-03 23:03:00,45.7,33.8,29.64,SE,137,7.0,9.0,63,0.00,,,0.00,0,Wunderground v.1.15,2013-03-04 05:03:00,
2013-03-03 23:09:00,45.5,34.0,29.63,SE,135,7.0,8.0,64,0.00,,,0.00,0,Wunderground v.1.15,2013-03-04 05:09:00,
2013-03-03 23:11:00,45.3,33.8,29.64,SE,135,7.0,8.0,64,0.00,,,0.00,0,Wunderground v.1.15,2013-03-04 05:11:00,
2013-03-03 23:17:00,44.8,33.7,29.63,SE,135,6.0,8.0,65,0.00,,,0.00,0,Wunderground v.1.15,2013-03-04 05:17:00,
2013-03-03 23:19:00,44.7,33.6,29.63,SE,135,6.0,8.0,65,0.00,,,0.00,0,Wunderground v.1.15,2013-03-04 05:19:00,
2013-03-03 23:25:00,44.8,33.7,29.63,SE,135,6.0,8.0,65,0.00,,,0.00,0,Wunderground v.1.15,2013-03-04 05:25:00,
2013-03-03 23:31:00,44.9,33.8,29.63,SE,135,6.0,7.0,65,0.00,,,0.00,0,Wunderground v.1.15,2013-03-04 05:31:00,
2013-03-03 23:37:00,44.8,33.7,29.63,SE,135,6.0,6.0,65,0.00,,,0.00,0,Wunderground v.1.15,2013-03-04 05:37:00,
2013-03-03 23:43:00,44.8,33.7,29.63,SE,135,6.0,7.0,65,0.00,,,0.00,0,Wunderground v.1.15,2013-03-04 05:43:00,
2013-03-03 23:49:00,44.8,33.7,29.63,SE,135,6.0,6.0,65,0.00,,,0.00,0,Wunderground v.1.15,2013-03-04 05:49:00,
2013-03-03 23:55:00,44.6,33.6,29.63,SE,135,6.0,6.0,65,0.00,,,0.00,0,Wunderground v.1.15,2013-03-04 05:55:00,